FW4485 Weather Reports


time (UTC)temp
C
wind
direction
speed
KPH
gust
KPH
rain 1hr
cm
rain 24hr
cm
rain mn
cm
humidity
%
barometer
mb
20260503054523 6 349 0.0 1.6 0.00 0.00 0.00 72 1016.3
20260503053034 5 348 0.0 1.6 0.00 0.00 0.00 68 1016.3
20260503051526 5 349 0.0 1.6 0.00 0.00 0.00 71 1016.3
20260503050030 5 297 0.0 1.6 0.00 0.00 0.00 73 1016.4
20260503044531 6 254 0.0 1.6 0.00 0.00 0.00 73 1016.2
20260503043020 6 329 0.0 1.6 0.00 0.00 0.00 64 1016.0
20260503041524 6 351 0.0 1.6 0.00 0.00 0.00 66 1016.0
20260503040029 5 310 0.0 0.0 0.00 0.00 0.00 72 1016.0
20260503034529 5 310 0.0 0.0 0.00 0.00 0.00 71 1015.8
20260503033018 5 310 0.0 0.0 0.00 0.00 0.00 69 1015.7
20260503031524 6 310 0.0 0.0 0.00 0.00 0.00 66 1015.5
20260503030031 7 310 0.0 0.0 0.00 0.00 0.00 63 1015.6
20260503024525 7 310 0.0 0.0 0.00 0.00 0.00 59 1015.6
20260503023027 8 309 0.0 0.0 0.00 0.00 0.00 57 1015.6
20260503021518 8 355 0.0 1.6 0.00 0.00 0.00 53 1015.4
20260503020031 9 356 0.0 1.6 0.00 0.00 0.00 51 1015.2
20260503014523 10 314 0.0 1.6 0.00 0.00 0.00 51 1015.1
20260503013025 10 348 0.0 4.8 0.00 0.00 0.00 49 1014.9
20260503011528 10 354 1.6 4.8 0.00 0.00 0.00 47 1014.7
20260503010033 11 211 0.0 1.6 0.00 0.00 0.00 47 1014.5
20260503004519 11 12 1.6 8.0 0.00 0.00 0.00 45 1014.4
20260503003031 12 172 1.6 6.4 0.00 0.00 0.00 43 1014.0
20260503001528 12 352 3.2 8.0 0.00 0.00 0.00 42 1013.7
20260503000039 13 323 1.6 11.3 0.00 0.00 0.00 41 1013.5
20260502234547 13 20 1.6 9.7 0.00 0.00 0.00 42 1013.2
20260502233024 14 260 3.2 11.3 0.00 0.00 0.00 41 1012.9
20260502231531 14 181 3.2 11.3 0.00 0.00 0.00 40 1012.8
20260502230029 14 340 1.6 6.4 0.00 0.00 0.00 41 1012.7
20260502224529 15 6 1.6 9.7 0.00 0.00 0.00 39 1012.6
20260502223037 15 349 1.6 12.9 0.00 0.00 0.00 39 1012.4
20260502221525 15 255 3.2 12.9 0.00 0.00 0.00 37 1012.1
20260502220028 16 173 3.2 11.3 0.00 0.00 0.00 36 1011.8
20260502214528 16 212 3.2 14.5 0.00 0.00 0.00 36 1011.4
20260502213028 17 18 3.2 11.3 0.00 0.00 0.00 34 1011.2
20260502211530 17 198 3.2 14.5 0.00 0.00 0.00 34 1011.0
20260502210025 18 77 3.2 9.7 0.00 0.00 0.00 33 1010.9
20260502204509 18 285 3.2 8.0 0.00 0.00 0.00 34 1010.7
20260502203013 18 51 1.6 9.7 0.00 0.00 0.00 33 1010.9
20260502201517 18 271 3.2 11.3 0.00 0.00 0.00 31 1011.1
20260502200024 18 143 3.2 11.3 0.00 0.00 0.00 34 1011.2
20260502194529 17 51 3.2 8.0 0.00 0.00 0.00 33 1011.6
20260502193012 17 32 1.6 9.7 0.00 0.00 0.00 33 1012.0
20260502191513 17 56 4.8 12.9 0.00 0.00 0.00 33 1012.2
20260502190021 17 5 8.0 14.5 0.00 0.00 0.00 37 1012.2
20260502184527 16 212 4.8 9.7 0.00 0.00 0.00 35 1012.3
20260502183028 16 56 4.8 8.0 0.00 0.00 0.00 36 1012.6
20260502181511 16 16 1.6 6.4 0.00 0.00 0.00 39 1012.7
20260502163036 13 233 1.6 9.7 0.00 0.00 0.00 46 1014.6
20260502161535 12 322 1.6 4.8 0.00 0.00 0.00 49 1014.8
20260502151525 11 297 1.6 3.2 0.00 0.00 0.00 49 1015.1
20260502123033 10 203 0.0 4.8 0.00 0.00 0.00 55 1014.1
20260502121515 10 235 1.6 3.2 0.00 0.00 0.00 57 1013.9
20260502114522 10 348 0.0 3.2 0.00 0.00 0.00 62 1014.0
20260502113004 10 7 1.6 4.8 0.00 0.00 0.00 65 1013.9
20260502111511 10 8 0.0 3.2 0.00 0.00 0.00 67 1013.7
20260502110016 10 39 0.0 3.2 0.00 0.00 0.00 69 1013.6
20260502104522 10 145 0.0 1.6 0.00 0.00 0.00 69 1013.6
20260502103022 10 352 0.0 4.8 0.00 0.00 0.00 69 1013.5
20260502101511 10 32 1.6 6.4 0.00 0.00 0.00 69 1013.6
20260502091527 11 311 0.0 3.2 0.00 0.00 0.00 68 1013.7
20260502071521 11 11 1.6 6.4 0.00 0.00 0.00 70 1012.5
20260502070025 11 87 0.0 4.8 0.00 0.00 0.00 73 1012.6
20260502064529 11 14 1.6 6.4 0.00 0.00 0.00 75 1012.8